This is the latest recevied weather packets stored in our database for station/object OK1TBM-13. If no packets are shown the sender has not sent any weather packets the latest 10 day(s).
| Time | Temp. | Humidity | Pressure | Rain* | Wind** | Luminosity | Snow |
|---|---|---|---|---|---|---|---|
| 1788361501 | 23.33° C | 52% | 1018 hPa | 0 mm | - | 200 W/m² | - |
| 1788361205 | 23.33° C | 50% | 1018 hPa | 0 mm | - | 168 W/m² | - |
| 1788360902 | 24.44° C | 50% | 1018 hPa | 0 mm | - | 339 W/m² | - |
| 1788360602 | 23.33° C | 51% | 1018 hPa | 0 mm | - | 236 W/m² | - |
| 1788360002 | 23.33° C | 50% | 1018 hPa | 0 mm | - | 229 W/m² | - |
| 1788359701 | 23.89° C | 51% | 1018 hPa | 0 mm | - | 230 W/m² | - |
| 1788359402 | 24.44° C | 49% | 1018 hPa | 0 mm | - | 235 W/m² | - |
| 1788359101 | 24.44° C | 48% | 1018 hPa | 0 mm | - | 328 W/m² | - |
| 1788358805 | 23.89° C | 49% | 1018 hPa | 0 mm | - | 316 W/m² | - |
| 1788358502 | 24.44° C | 48% | 1018 hPa | 0 mm | - | 288 W/m² | - |
| 1788358202 | 24.44° C | 48% | 1018 hPa | 0 mm | - | 340 W/m² | - |
| 1788357901 | 24.44° C | 48% | 1018 hPa | 0 mm | - | 381 W/m² | - |
| 1788357301 | 24.44° C | 49% | 1018.3 hPa | 0 mm | - | 261 W/m² | - |
| 1788356701 | 24.44° C | 48% | 1018 hPa | 0 mm | - | 302 W/m² | - |
| 1788356401 | 25° C | 46% | 1018 hPa | 0 mm | - | 326 W/m² | - |
| 1788356100 | 25° C | 45% | 1018.3 hPa | 0 mm | - | 284 W/m² | - |
| 1788355802 | 25.56° C | 45% | 1018.3 hPa | 0 mm | - | 376 W/m² | - |
| 1788355201 | 25° C | 48% | 1018.3 hPa | 0 mm | - | 514 W/m² | - |
| 1788354901 | 25° C | 47% | 1018.3 hPa | 0 mm | - | 428 W/m² | - |
| 1788354601 | 24.44° C | 47% | 1018.3 hPa | 0 mm | - | 482 W/m² | - |
| 1788354301 | 24.44° C | 46% | 1018.3 hPa | 0 mm | - | 366 W/m² | - |
| 1788354001 | 24.44° C | 47% | 1019 hPa | 0 mm | - | 328 W/m² | - |
| 1788353701 | 25° C | 45% | 1019 hPa | 0 mm | - | 442 W/m² | - |
| 1788353401 | 25.56° C | 45% | 1019 hPa | 0 mm | - | 539 W/m² | - |
| 1788353101 | 25° C | 46% | 1019 hPa | 0 mm | - | 636 W/m² | - |
* Rain latest hour (hover to see other rain measurements)
** Current wind speed in m/s (hover to see current wind gust speed)